EW5291 Weather Reports


Display with metric or nautical units.
time (UTC)temp
F
wind
direction
speed
MPH
gust
MPH
rain 1hr
in
rain 24hr
in
rain mn
in
humidity
%
barometer
mb
20260504234513 64 190 0.0 5.0 0.00 0.00 0.00 37 1008.0
20260504234504 64 191 0.0 5.0 0.00 0.00 0.00 37 1007.4
20260504234004 64 191 0.0 5.0 0.00 0.00 0.00 37 1007.3
20260504233504 65 191 0.0 7.0 0.00 0.00 0.00 36 1007.2
20260504233004 65 191 1.0 9.0 0.00 0.00 0.00 36 1007.2
20260504232503 65 191 1.0 9.0 0.00 0.00 0.00 34 1007.0
20260504232003 65 191 1.0 8.0 0.00 0.00 0.00 34 1006.9
20260504231512 65 190 1.0 8.0 0.00 0.00 0.00 34 1007.5
20260504231503 66 191 1.0 8.0 0.00 0.00 0.00 34 1006.8
20260504231003 66 191 1.0 7.0 0.00 0.00 0.00 34 1006.7
20260504230503 66 191 1.0 7.0 0.00 0.00 0.00 34 1006.7
20260504230012 66 190 0.0 7.0 0.00 0.00 0.00 33 1007.3
20260504230003 66 190 0.0 7.0 0.00 0.00 0.00 33 1006.6
20260504224522 67 190 0.0 8.0 0.00 0.00 0.00 30 1007.1
20260504224503 68 191 1.0 8.0 0.00 0.00 0.00 30 1006.5
20260504223503 69 191 1.0 9.0 0.00 0.00 0.00 27 1006.5
20260504223012 69 190 1.0 7.0 0.00 0.00 0.00 24 1007.0
20260504223003 70 191 0.0 7.0 0.00 0.00 0.00 24 1006.4
20260504222503 70 191 0.0 2.0 0.00 0.00 0.00 24 1006.2
20260504222003 70 191 0.0 1.0 0.00 0.00 0.00 23 1006.3
20260504221512 70 190 0.0 1.0 0.00 0.00 0.00 21 1006.9
20260504221504 70 191 0.0 1.0 0.00 0.00 0.00 21 1006.3
20260504221004 70 191 0.0 1.0 0.00 0.00 0.00 24 1006.2
20260504220504 71 191 0.0 1.0 0.00 0.00 0.00 22 1006.3
20260504220012 70 190 0.0 1.0 0.00 0.00 0.00 24 1006.9
20260504220004 71 191 0.0 1.0 0.00 0.00 0.00 24 1006.3
20260504215503 70 0 0.0 0.0 0.00 0.00 0.00 23 1006.3
20260504215003 70 191 0.0 3.0 0.00 0.00 0.00 22 1006.3
20260504214523 70 190 0.0 3.0 0.00 0.00 0.00 22 1006.9
20260504214503 70 191 0.0 3.0 0.00 0.00 0.00 23 1006.3
20260504214003 70 191 0.0 5.0 0.00 0.00 0.00 23 1006.3
20260504213012 70 190 0.0 5.0 0.00 0.00 0.00 22 1006.9
20260504213004 71 191 0.0 5.0 0.00 0.00 0.00 22 1006.3
20260504212504 71 191 0.0 2.0 0.00 0.00 0.00 21 1006.3
20260504212004 71 191 0.0 5.0 0.00 0.00 0.00 22 1006.3
20260504211510 70 190 0.0 5.0 0.00 0.00 0.00 23 1006.9
20260504211003 71 190 0.0 2.0 0.00 0.00 0.00 23 1006.4
20260504210503 72 191 0.0 1.0 0.00 0.00 0.00 22 1006.5
20260504210016 71 190 0.0 1.0 0.00 0.00 0.00 22 1006.9
20260504210003 72 191 0.0 1.0 0.00 0.00 0.00 22 1006.3
20260504205503 72 191 0.0 1.0 0.00 0.00 0.00 21 1006.4
20260504205003 72 191 0.0 1.0 0.00 0.00 0.00 23 1006.4
20260504204512 72 190 0.0 2.0 0.00 0.00 0.00 23 1007.0
20260504204503 72 191 0.0 4.0 0.00 0.00 0.00 23 1006.3
20260504204003 73 191 0.0 7.0 0.00 0.00 0.00 22 1006.4
20260504203012 71 190 0.0 9.0 0.00 0.00 0.00 22 1007.0
20260504203004 72 0 0.0 0.0 0.00 0.00 0.00 22 1006.3
20260504202004 72 191 1.0 12.0 0.00 0.00 0.00 21 1006.3
20260504201512 72 190 0.0 12.0 0.00 0.00 0.00 21 1007.0
20260504201504 72 191 1.0 12.0 0.00 0.00 0.00 21 1006.3
20260504201004 73 191 1.0 7.0 0.00 0.00 0.00 20 1006.3
20260504200504 73 191 1.0 14.0 0.00 0.00 0.00 20 1006.4
20260504200017 73 190 0.0 14.0 0.00 0.00 0.00 19 1007.1
20260504200004 74 191 1.0 14.0 0.00 0.00 0.00 19 1006.5
20260504195504 74 191 1.0 10.0 0.00 0.00 0.00 21 1006.4
20260504195005 74 191 0.0 7.0 0.00 0.00 0.00 20 1006.6
20260504194513 73 190 0.0 7.0 0.00 0.00 0.00 22 1007.2
20260504193503 73 191 1.0 6.0 0.00 0.00 0.00 20 1006.6
20260504193012 72 190 1.0 10.0 0.00 0.00 0.00 20 1007.2
20260504193004 73 191 1.0 6.0 0.00 0.00 0.00 21 1006.7
20260504192504 73 191 0.0 3.0 0.00 0.00 0.00 21 1006.6
20260504191514 74 190 0.0 2.0 0.00 0.00 0.00 21 1007.3
20260504191504 74 190 0.0 2.0 0.00 0.00 0.00 21 1006.6
20260504191004 74 191 0.0 2.0 0.00 0.00 0.00 19 1006.7
20260504190503 74 191 1.0 12.0 0.00 0.00 0.00 23 1006.8
20260504190012 73 190 0.0 12.0 0.00 0.00 0.00 22 1007.5
20260504190004 73 191 1.0 12.0 0.00 0.00 0.00 22 1006.9
20260504184520 73 190 0.0 5.0 0.00 0.00 0.00 20 1007.6
20260504184503 74 191 1.0 6.0 0.00 0.00 0.00 20 1006.9
20260504184003 73 191 0.0 6.0 0.00 0.00 0.00 22 1006.9
20260504183504 74 191 0.0 5.0 0.00 0.00 0.00 18 1007.1
20260504183022 73 190 0.0 6.0 0.00 0.00 0.00 23 1007.7
20260504183003 74 191 0.0 5.0 0.00 0.00 0.00 23 1007.0
20260504182504 74 191 0.0 3.0 0.00 0.00 0.00 20 1007.2
20260504182003 73 191 0.0 7.0 0.00 0.00 0.00 20 1007.1
20260504181511 73 190 0.0 7.0 0.00 0.00 0.00 20 1007.9
20260504181503 73 191 1.0 7.0 0.00 0.00 0.00 20 1007.2
20260504181003 73 191 1.0 11.0 0.00 0.00 0.00 20 1007.1
20260504180503 73 191 1.0 11.0 0.00 0.00 0.00 24 1007.3
20260504180012 72 190 0.0 5.0 0.00 0.00 0.00 22 1008.0
20260504180004 72 191 1.0 18.0 0.00 0.00 0.00 22 1007.3
20260504175504 72 191 1.0 18.0 0.00 0.00 0.00 19 1007.4
20260504175004 72 191 0.0 6.0 0.00 0.00 0.00 21 1007.1
20260504174512 71 190 0.0 6.0 0.00 0.00 0.00 18 1007.9
20260504174503 72 190 1.0 15.0 0.00 0.00 0.00 21 1007.3
20260504174004 71 191 1.0 15.0 0.00 0.00 0.00 19 1007.3
20260504173504 71 191 1.0 8.0 0.00 0.00 0.00 20 1007.3
20260504173011 71 190 0.0 9.0 0.00 0.00 0.00 20 1008.1
20260504173004 71 191 1.0 8.0 0.00 0.00 0.00 20 1007.4
20260504172503 71 190 0.0 3.0 0.00 0.00 0.00 18 1007.4
20260504172003 71 191 1.0 12.0 0.00 0.00 0.00 20 1007.5
20260504171512 71 190 1.0 13.0 0.00 0.00 0.00 19 1008.3
20260504171503 71 191 1.0 12.0 0.00 0.00 0.00 19 1007.6
20260504171003 71 191 1.0 7.0 0.00 0.00 0.00 22 1007.7
20260504170503 71 191 1.0 7.0 0.00 0.00 0.00 20 1007.7
20260504151004 66 191 1.0 13.0 0.00 0.00 0.00 26 1009.0
20260504150504 66 191 1.0 13.0 0.00 0.00 0.00 24 1009.2
20260504140503 63 191 0.0 6.0 0.00 0.00 0.00 32 1009.6
20260504130504 58 191 0.0 6.0 0.00 0.00 0.00 37 1010.1
20260504110503 38 0 0.0 0.0 0.00 0.00 0.00 79 1010.6
20260504081546 38 190 0.0 0.0 0.00 0.00 0.00 74 1010.9
20260504050022 37 190 0.0 0.0 0.00 0.00 0.00 75 1011.1
20260504044521 37 190 0.0 0.0 0.00 0.00 0.00 74 1011.1
20260504043019 37 190 0.0 0.0 0.00 0.00 0.00 72 1011.2
20260504041517 37 190 0.0 0.0 0.00 0.00 0.00 73 1011.1
20260504040017 37 190 0.0 0.0 0.00 0.00 0.00 72 1011.0
20260504034515 37 190 0.0 0.0 0.00 0.00 0.00 70 1010.9
20260504033014 37 190 0.0 0.0 0.00 0.00 0.00 71 1010.8
20260504031515 37 190 0.0 0.0 0.00 0.00 0.00 72 1010.6
20260504030015 37 190 0.0 0.0 0.00 0.00 0.00 73 1010.6
20260504025004 37 0 0.0 0.0 0.00 0.00 0.00 72 1009.8
20260504024602 36 190 0.0 0.0 0.00 0.00 0.00 71 1010.7
20260504023504 37 0 0.0 0.0 0.00 0.00 0.00 71 1009.8
20260504023103 37 190 0.0 0.0 0.00 0.00 0.00 71 1010.6
20260504023003 37 0 0.0 0.0 0.00 0.00 0.00 71 1009.8
20260504022504 37 0 0.0 0.0 0.00 0.00 0.00 71 1009.7
20260504022004 37 0 0.0 0.0 0.00 0.00 0.00 70 1009.6
20260504021603 37 190 0.0 0.0 0.00 0.00 0.00 69 1010.5
20260504021504 37 0 0.0 0.0 0.00 0.00 0.00 69 1009.7
20260504021003 37 0 0.0 0.0 0.00 0.00 0.00 69 1009.6
20260504020504 37 0 0.0 0.0 0.00 0.00 0.00 68 1009.6
20260504020108 37 190 0.0 0.0 0.00 0.00 0.00 68 1010.4
20260504020004 37 0 0.0 0.0 0.00 0.00 0.00 68 1009.6
20260504015503 37 0 0.0 0.0 0.00 0.00 0.00 69 1009.5
20260504015003 38 0 0.0 0.0 0.00 0.00 0.00 69 1009.5
20260504014608 37 190 0.0 0.0 0.00 0.00 0.00 69 1010.3
20260504014503 38 0 0.0 0.0 0.00 0.00 0.00 68 1009.4
20260504014004 38 0 0.0 0.0 0.00 0.00 0.00 68 1009.4
20260504013504 38 0 0.0 0.0 0.00 0.00 0.00 67 1009.4
20260504013103 37 190 0.0 0.0 0.00 0.00 0.00 64 1010.2
20260504013004 38 0 0.0 0.0 0.00 0.00 0.00 64 1009.3
20260504012504 38 0 0.0 0.0 0.00 0.00 0.00 63 1009.3
20260504011603 38 190 0.0 0.0 0.00 0.00 0.00 63 1010.0
20260504011504 39 0 0.0 0.0 0.00 0.00 0.00 63 1009.1
20260504011004 39 0 0.0 0.0 0.00 0.00 0.00 61 1009.1
20260504010503 40 0 0.0 0.0 0.00 0.00 0.00 62 1008.9
20260504010004 40 0 0.0 0.0 0.00 0.00 0.00 62 1008.9
20260504005503 40 0 0.0 0.0 0.00 0.00 0.00 62 1008.8
20260504004603 40 190 0.0 0.0 0.00 0.00 0.00 56 1009.5
20260504004503 41 0 0.0 0.0 0.00 0.00 0.00 57 1008.6
20260504003504 42 0 0.0 0.0 0.00 0.00 0.00 55 1008.5
20260504003114 42 190 0.0 0.0 0.00 0.00 0.00 54 1009.3
20260504003004 42 0 0.0 0.0 0.00 0.00 0.00 54 1008.5
20260504002504 43 0 0.0 0.0 0.00 0.00 0.00 52 1008.4
20260504002004 44 0 0.0 0.0 0.00 0.00 0.00 49 1008.4
20260504001603 44 190 0.0 0.0 0.00 0.00 0.00 47 1009.2
20260504001503 44 0 0.0 0.0 0.00 0.00 0.00 47 1008.3
20260504000504 45 0 0.0 0.0 0.00 0.00 0.00 43 1008.2
20260504000107 45 190 0.0 0.0 0.00 0.00 0.00 45 1008.9
20260503235004 47 0 0.0 0.0 0.00 0.00 0.00 39 1008.0